[[{"header":{"parameterUnit":"m.s-1","parameterCategory":1,"la1":30.2991,"la2":30.254,"lo1":-89.0895,"lo2":-89.0444,"dy":0.0017,"dx":0.0017,"nx":28,"ny":28,"refTime":"2024-05-23T03:00:00:Z","depth":0,"parameterNumber":2,"parameterNumberName":"U-component_of_WINDS"},"data":[0,0,0,0,0,0,0,0,0,0,0,0,0,0,0,0,0,0,0,0,0,0,0,0,0,0,0,0,0,0,0,0,0,0,0,0,0,0,0,0,0,0,0,0,0,0,0,0,0,0,0,0,0,0,0,0,0,0,-0.9952,-0.9952,0,-0.999,-0.999,-0.999,-0.9989,-0.9989,-0.9988,-0.9988,-1.0027,-1.0028,-1.003,0,0,0,0,0,0,0,0,0,0,0,0,0,-0.988,-0.9881,-0.9952,-0.9952,-0.9953,-0.999,-0.999,-0.9991,-0.9989,-0.9989,-0.9988,-0.9987,-1.0026,-1.0028,-1.003,0,0,0,0,0,0,0,0,0,0,0,0,0,-0.9914,-0.9882,-0.9952,-0.9957,-0.9957,-0.9989,-0.999,-0.9991,-0.9989,-0.9989,-0.9988,-0.9987,-1.0026,-1.0028,-1.003,-1.006,0,0,-1.0037,-1.0038,0,0,0,0,0,0,0,0,-0.9912,-0.9916,-0.9955,-0.9956,-0.9957,-0.9984,-0.9979,-1.0014,-0.999,-0.9977,-0.9988,-0.9987,-1.0013,-1.0016,-1.0025,-1.0062,-1.0064,-1.0037,-1.0039,-1.004,-1.004,0,0,0,0,0,0,0,-0.991,-0.9915,-0.9967,-0.9956,-0.9957,-0.9957,-0.9961,-0.9986,-0.9999,-0.9978,-0.9978,-0.9983,-1.0014,-1.0023,-1.0026,-1.0064,-1.0037,-1.0039,-1.0041,-1.0042,-1.0128,-1.0128,0,0,0,0,0,0,-0.9906,-0.9913,-0.9966,-0.9968,-0.9932,-0.9959,-0.9964,-0.9976,-0.9999,-1.0002,-0.9983,-0.9982,-1.002,-1.0023,-1.0028,-1.0064,-1.004,-1.0042,-1.0043,-1.0127,-1.0128,-1.0129,0,0,0,0,0,0,-0.9904,-0.9911,-0.9964,-0.994,-0.9947,-0.9961,-0.9975,-0.9977,-0.9987,-1.0003,-1.0005,-0.999,-1.0019,-1.0024,-1.0052,-1.0065,-1.0043,-1.0045,-1.0126,-1.0127,-1.0128,-1.0138,0,0,0,0,0,0,-0.9902,-0.991,-0.9922,-0.9941,-0.9949,-0.9988,-0.9976,-0.9979,-0.9991,-0.999,-1.001,-1.0013,-1.0019,-1.0049,-1.0054,-1.0068,-1.0047,-1.0125,-1.0126,-1.0128,-1.0136,-1.0139,-1.0142,0,0,0,0,0,-0.99,-0.9923,-0.9922,-0.9928,-0.9963,-0.9989,-0.9993,-0.9999,-0.9992,-1.0003,-1.0014,-1.0012,-1.0063,-1.0051,-1.0058,-1.0073,-1.0124,-1.0126,-1.0128,-1.0135,-1.0139,-1.0142,0,0,0,0,0,0,-0.9905,-0.9925,-0.9925,-0.9955,-0.997,-0.9988,-1.0003,-1.0003,-1.0021,-1.002,-1.0027,-1.0032,-1.0059,-1.0069,-1.0055,-1.0103,-1.0092,-1.0096,-1.0096,-1.0099,-1.0102,-1.0099,-1.0049,0,0,0,0,0,-0.991,-0.9929,-0.9945,-0.997,-0.9978,-0.9989,-1.0001,-1.0004,-1.002,-1.0027,-1.0039,-1.0055,-1.0075,-1.0088,-1.0107,-1.0138,-1.0142,-1.0151,-1.0154,-1.0156,-1.0159,-1.0176,-1.018,-1.0135,-1.0135,-1.0135,0,0,-0.992,-0.9933,-0.9945,-0.9972,-0.9984,-1.0003,-0.9995,-1.0016,-1.003,-1.003,-1.0057,-1.0067,-1.0085,-1.0114,-1.0128,-1.0123,-1.0172,-1.0158,-1.016,-1.0162,-1.0178,-1.0183,-1.0186,-1.0137,-1.0137,-1.0136,0,0,-0.9947,-0.9959,-0.9981,-0.9994,-1.0012,-1.002,-1.0025,-1.0043,-1.005,-1.0077,-1.0077,-1.0095,-1.0128,-1.0141,-1.0152,-1.0185,-1.0184,-1.0191,-1.0205,-1.0222,-1.0226,-1.0229,-1.024,-1.0244,-1.0194,-1.0194,-1.0194,0,-0.9957,-0.9987,-0.9993,-1.0014,-1.0026,-1.0026,-1.0049,-1.006,-1.0084,-1.0093,-1.0087,-1.0129,-1.0141,-1.0174,-1.0182,-1.0191,-1.0197,-1.0189,-1.0224,-1.0228,-1.0231,-1.0242,-1.0246,-1.0195,-1.0195,-1.0195,-1.0194,0,-0.9998,-1.0018,-1.0034,-1.0056,-1.007,-1.0092,-1.0101,-1.0115,-1.0117,-1.0125,-1.0153,-1.0168,-1.019,-1.0198,-1.02,-1.0231,-1.0227,-1.0223,-1.0212,-1.0236,-1.0246,-1.0251,-1.0196,-1.0195,-1.0195,-1.0195,0,0,-1.003,-1.0056,-1.0062,-1.0072,-1.0092,-1.0108,-1.013,-1.0151,-1.0162,-1.0179,-1.0197,-1.0226,-1.0222,-1.0235,-1.0239,-1.0253,-1.0278,-1.0247,-1.0248,-1.0253,-1.0313,-1.0316,-1.0321,-1.0278,-1.0279,-1.028,-1.0311,0,-1.006,-1.0099,-1.0105,-1.0138,-1.0157,-1.0158,-1.0177,-1.0192,-1.02,-1.0217,-1.0226,-1.0246,-1.024,-1.0248,-1.0262,-1.0272,-1.0291,-1.027,-1.0296,-1.0296,-1.0291,-1.0326,-1.033,-1.0359,-1.0315,-1.0316,-1.0317,0,-1.0101,-1.0118,-1.0153,-1.0171,-1.0179,-1.0196,-1.0216,-1.0232,-1.0249,-1.0254,-1.0268,-1.0271,-1.0293,-1.0282,-1.0314,-1.03,-1.031,-1.0317,-1.0318,-1.0321,-1.0308,-1.033,-1.0368,-1.0373,-1.0323,-1.0323,-1.0322,0,-1.0121,-1.0153,-1.0178,-1.0187,-1.0208,-1.022,-1.0229,-1.0245,-1.0258,-1.0275,-1.0283,-1.0303,-1.0314,-1.033,-1.0338,-1.0329,-1.0369,-1.0358,-1.0374,-1.0374,-1.0382,-1.0382,-1.0423,-1.0389,-1.0389,-1.0389,-1.0389,0,-1.0154,-1.0175,-1.0187,-1.0203,-1.0227,-1.0234,-1.0258,-1.0267,-1.0282,-1.0299,-1.0301,-1.0318,-1.0327,-1.0345,-1.0351,-1.0377,-1.0382,-1.0386,-1.0388,-1.0386,-1.0386,-1.0393,-1.0391,-1.039,-1.039,-1.039,-1.039,0,-1.018,-1.0189,-1.0217,-1.0234,-1.0239,-1.0257,-1.0272,-1.0287,-1.0295,-1.0318,-1.0323,-1.0336,-1.0357,-1.0366,-1.0393,-1.0397,-1.0426,-1.0426,-1.042,-1.0421,-1.0436,-1.0434,-1.0483,-1.049,-1.0452,-1.0453,-1.0453,0,-1.0201,-1.0217,-1.0237,-1.0248,-1.0258,-1.0277,-1.029,-1.0297,-1.031,-1.033,-1.0343,-1.0364,-1.0382,-1.0416,-1.0427,-1.0447,-1.0448,-1.0464,-1.0451,-1.0449,-1.0448,-1.0447,-1.0449,-1.0466,-1.0467,-1.0467,-1.0467,0,-1.0236,-1.024,-1.0257,-1.0277,-1.0291,-1.0307,-1.0322,-1.0332,-1.0342,-1.0356,-1.0378,-1.0391,-1.0418,-1.0439,-1.046,-1.047,-1.047,-1.0471,-1.0476,-1.0474,-1.047,-1.0473,-1.0427,-1.047,-1.047,-1.0469,-1.0469,-1.0469,-1.0261,-1.0275,-1.0291,-1.0311,-1.0323,-1.0337,-1.0352,-1.0362,-1.038,-1.0402,-1.0405,-1.0428,-1.0445,-1.0473,-1.0483,-1.0502,-1.0498,-1.0505,-1.0506,-1.0508,-1.0509,-1.0467,-1.0506,-1.0505,-1.0505,-1.0505,-1.0505,0,-1.0296,-1.0306,-1.0324,-1.0345,-1.0361,-1.0359,-1.0376,-1.0389,-1.0409,-1.0424,-1.0441,-1.0466,-1.0486,-1.05,-1.052,-1.0532,-1.0533,-1.0538,-1.0537,-1.0539,-1.0511,-1.0505,-1.0537,-1.0537,-1.0537,-1.0537,-1.0537,-1.0537,-1.0317,-1.0342,-1.0347,-1.0378,-1.0388,-1.041,-1.042,-1.0433,-1.0445,-1.0472,-1.0489,-1.0497,-1.0512,-1.0533,-1.0552,-1.0555,-1.0563,-1.0568,-1.0571,-1.0544,-1.0541,-1.0538,-1.0532,-1.0569,-1.0569,-1.0597,-1.0598,-1.0598]},{"header":{"parameterUnit":"m.s-1","parameterCategory":1,"la1":30.2991,"la2":30.254,"lo1":-89.0895,"lo2":-89.0444,"dy":0.0017,"dx":0.0017,"nx":28,"ny":28,"refTime":"2024-05-23T03:00:00:Z","depth":0,"parameterNumber":3,"parameterNumberName":"V-component_of_WINDS"},"data":[0,0,0,0,0,0,0,0,0,0,0,0,0,0,0,0,0,0,0,0,0,0,0,0,0,0,0,0,0,0,0,0,0,0,0,0,0,0,0,0,0,0,0,0,0,0,0,0,0,0,0,0,0,0,0,0,0,0,3.6637,3.6637,0,3.667,3.667,3.6671,3.662,3.6618,3.6616,3.6615,3.6646,3.6648,3.665,0,0,0,0,0,0,0,0,0,0,0,0,0,3.6526,3.6528,3.6637,3.6637,3.6638,3.667,3.667,3.6671,3.662,3.6618,3.6616,3.6614,3.6645,3.6648,3.6651,0,0,0,0,0,0,0,0,0,0,0,0,0,3.6568,3.6529,3.6637,3.6616,3.6615,3.667,3.667,3.6671,3.6621,3.6618,3.6615,3.6613,3.6644,3.6647,3.6651,3.6726,0,0,3.6662,3.6664,0,0,0,0,0,0,0,0,3.6565,3.6572,3.6619,3.6618,3.6616,3.6638,3.6642,3.6689,3.6621,3.6618,3.6615,3.6612,3.6645,3.6648,3.666,3.6728,3.6729,3.6663,3.6665,3.6666,3.6667,0,0,0,0,0,0,0,3.6563,3.657,3.665,3.662,3.6618,3.6604,3.6607,3.6651,3.6646,3.6618,3.6615,3.662,3.6644,3.6657,3.6661,3.6729,3.6662,3.6666,3.6668,3.6669,3.6857,3.686,0,0,0,0,0,0,3.6563,3.6568,3.6649,3.6651,3.6584,3.6608,3.6612,3.6634,3.6645,3.6645,3.6622,3.6617,3.6652,3.6656,3.6662,3.6748,3.6666,3.667,3.6672,3.6855,3.6858,3.6861,0,0,0,0,0,0,3.6561,3.657,3.6647,3.6608,3.6617,3.6613,3.6638,3.6636,3.6649,3.6648,3.6646,3.6636,3.665,3.6656,3.671,3.6749,3.6671,3.6675,3.6851,3.6856,3.686,3.6924,0,0,0,0,0,0,3.6558,3.657,3.66,3.661,3.662,3.6697,3.6641,3.6638,3.6656,3.665,3.6661,3.666,3.6648,3.6705,3.6714,3.6752,3.6678,3.6848,3.6853,3.6858,3.6918,3.6929,3.6939,0,0,0,0,0,3.6554,3.6616,3.6601,3.6611,3.6657,3.6699,3.6705,3.669,3.6659,3.6688,3.6687,3.666,3.6744,3.6711,3.672,3.6761,3.6845,3.6852,3.6858,3.6913,3.6927,3.6939,0,0,0,0,0,0,3.661,3.6617,3.6601,3.6669,3.6684,3.6691,3.6726,3.6706,3.673,3.6723,3.6703,3.6706,3.6764,3.6768,3.6731,3.6833,3.6789,3.6797,3.6828,3.6841,3.6851,3.6848,3.6681,0,0,0,0,0,3.6631,3.6666,3.667,3.6729,3.6737,3.6731,3.6749,3.6737,3.6751,3.6757,3.676,3.6774,3.6803,3.6823,3.685,3.6919,3.6919,3.6951,3.6962,3.697,3.6977,3.7012,3.7025,3.6882,3.6882,3.6881,0,0,3.6673,3.6681,3.6704,3.674,3.6751,3.6786,3.6737,3.6776,3.6801,3.6762,3.6813,3.6816,3.683,3.6892,3.6919,3.6897,3.7017,3.6978,3.6985,3.6987,3.702,3.7033,3.7045,3.6886,3.6885,3.6884,0,0,3.6767,3.6778,3.6828,3.6839,3.6855,3.685,3.6862,3.6872,3.6872,3.6923,3.6894,3.6923,3.6975,3.6985,3.6997,3.7095,3.707,3.7104,3.7159,3.7193,3.7204,3.7214,3.7246,3.7258,3.7111,3.7112,3.7112,0,3.6817,3.687,3.6855,3.6897,3.6912,3.688,3.6928,3.6939,3.6963,3.6974,3.695,3.7012,3.702,3.7082,3.7105,3.7117,3.7128,3.7102,3.7204,3.7214,3.7222,3.7253,3.7265,3.7115,3.7115,3.7115,3.7114,0,3.6929,3.6966,3.7004,3.7028,3.7048,3.7093,3.7084,3.7106,3.7092,3.7089,3.7139,3.7147,3.7174,3.7189,3.7175,3.7248,3.7234,3.7207,3.7162,3.724,3.7268,3.728,3.7121,3.712,3.7118,3.7118,0,0,3.706,3.7075,3.7088,3.7098,3.7113,3.7141,3.7183,3.721,3.7228,3.7246,3.7279,3.7323,3.7298,3.7312,3.7299,3.733,3.7403,3.7299,3.7298,3.7316,3.7481,3.7499,3.7513,3.7388,3.739,3.7392,3.7479,0,3.7152,3.7226,3.7213,3.7284,3.7317,3.7286,3.7322,3.7335,3.7333,3.7359,3.7357,3.7388,3.7354,3.7361,3.739,3.7388,3.7436,3.7382,3.7416,3.7418,3.7412,3.7529,3.7549,3.7631,3.749,3.7492,3.7494,0,3.7269,3.7291,3.7365,3.7373,3.7387,3.742,3.7442,3.7469,3.7481,3.7478,3.7493,3.7475,3.7515,3.7472,3.7526,3.749,3.7503,3.7504,3.7507,3.7508,3.7459,3.753,3.7657,3.7668,3.7511,3.751,3.7509,0,3.7353,3.7401,3.7451,3.7461,3.7473,3.7496,3.7502,3.7512,3.7529,3.7548,3.7558,3.7582,3.7595,3.7613,3.7601,3.7571,3.7657,3.7613,3.7653,3.7653,3.7671,3.7669,3.7799,3.7684,3.7684,3.7683,3.7683,0,3.7456,3.7502,3.7489,3.752,3.757,3.7554,3.7604,3.7606,3.7615,3.7644,3.762,3.7647,3.7631,3.7657,3.7648,3.7692,3.7699,3.7696,3.7692,3.7697,3.7697,3.7704,3.7697,3.7687,3.7686,3.7685,3.7685,0,3.7557,3.7551,3.7603,3.761,3.7612,3.7649,3.7654,3.7681,3.7678,3.7715,3.7723,3.7717,3.7746,3.7737,3.7768,3.7762,3.7818,3.7809,3.7814,3.781,3.7851,3.7846,3.7987,3.8004,3.788,3.7881,3.7882,0,3.7622,3.7657,3.7667,3.7685,3.7693,3.7722,3.7739,3.7725,3.7742,3.7759,3.7784,3.7811,3.7832,3.788,3.7878,3.7901,3.789,3.7938,3.7893,3.7896,3.7888,3.7885,3.7887,3.7946,3.7948,3.7949,3.795,0,3.7737,3.7732,3.7757,3.7781,3.7801,3.7819,3.7835,3.785,3.7837,3.7858,3.7888,3.7904,3.7936,3.7962,3.7983,3.7988,3.7966,3.7964,3.7974,3.7978,3.7979,3.7976,3.7835,3.7961,3.7959,3.7959,3.7958,3.7958,3.782,3.7849,3.786,3.7888,3.7899,3.7913,3.7939,3.7939,3.7964,3.7988,3.7979,3.8012,3.8022,3.8048,3.8056,3.8081,3.8062,3.8077,3.8081,3.8084,3.8088,3.7977,3.8085,3.8084,3.8084,3.8084,3.8084,0,3.7932,3.7937,3.7964,3.7986,3.8008,3.7987,3.8002,3.8021,3.8051,3.8063,3.8084,3.8117,3.8143,3.8143,3.8166,3.8186,3.8176,3.8192,3.8189,3.819,3.8105,3.8093,3.8199,3.8199,3.8199,3.8199,3.8199,3.8199,3.7992,3.8038,3.8034,3.8085,3.809,3.8123,3.8133,3.8146,3.8155,3.8193,3.8214,3.8214,3.8221,3.8244,3.8266,3.8265,3.8273,3.8292,3.8288,3.8208,3.8196,3.8185,3.8173,3.8295,3.8295,3.837,3.8371,3.8371]}]]